St.-Jovite, Quebec

8:42 AM EDT on March 24, 2017 (GMT -0400)
St.-Jovite

Weather History for CWJT - December, 2012

Change the Weather History Date:

Monday, December 3, 2012

  Actual Average Record
Temperature  
Mean Temperature 34 °F -  
Max Temperature 36 °F - - ()
Min Temperature 31 °F - - ()
Degree Days  
Heating Degree Days 32    
Moisture  
Dew Point 33 °F    
Average Humidity 94    
Maximum Humidity 100    
Minimum Humidity 81    
Precipitation  
Precipitation 0.00 in - - ()
Sea Level Pressure  
Sea Level Pressure 30.17 in    
Wind  
Wind Speed 2 mph ()    
Max Wind Speed 4 mph    
Max Gust Speed -    
T = Trace of Precipitation, MM = Missing Value Source: Averaged Metar Reports

Daily Weather History Graph

Daily Weather History Graph

Search for Another Location

Airport or City:

Trip Planner

Search our weather history database for the weather conditions in past years. The results will help you decide how hot, cold, wet, or windy it might be!

Date:

Astronomy

Dec. 03, 2012 Rise Set
Actual Time 7:22 AM EST 4:13 PM EST
Civil Twilight 6:48 AM EST 4:47 PM EST
Nautical Twilight 6:10 AM EST 5:25 PM EST
Astronomical Twilight 5:34 AM EST 6:01 PM EST
Moon 9:06 PM EST (12/3) 10:36 AM EST (12/3)
Length of Visible Light 9h 59m
Length of Day
8h 50m
Waning Gibbous, 78% of the Moon is Illuminated
Dec 3
Waning Gibbous
Dec 6
Last Quarter
Dec 13
New
Dec 20
First Quarter
Dec 28
Full

Hourly Weather History & Observations

Time (EST) Temp. Windchill Dew Point Humidity Pressure Visibility Wind Dir Wind Speed Gust Speed Precip Events Conditions
12:00 AM 38.8 °F 36.5 °F 38.8 °F 100% 29.91 in - West 3.5 mph - N/A   Unknown
1:00 AM 37 °F - 37 °F 98% 29.96 in - WNW 2.3 mph - -  
1:00 AM 37.0 °F - 36.7 °F 99% 29.96 in - WNW 2.3 mph - N/A   Unknown
2:00 AM 36.0 °F 33.3 °F 35.4 °F 98% 30.02 in - WNW 3.5 mph - N/A   Unknown
3:00 AM 35.1 °F - 34.0 °F 96% 30.06 in - WNW 2.3 mph - N/A   Unknown
4:00 AM 34.9 °F - 34.2 °F 97% 30.08 in - WNW 2.3 mph - N/A   Unknown
5:00 AM 34.7 °F - 34.3 °F 99% 30.11 in - WNW 1.2 mph - N/A   Unknown
6:00 AM 34.2 °F - 34.2 °F 100% 30.15 in - West 1.2 mph - N/A   Unknown
7:00 AM 34 °F - 34 °F 100% 30.18 in - WNW 1.2 mph - -  
7:00 AM 34.3 °F - 34.3 °F 100% 30.18 in - WNW 1.2 mph - N/A   Unknown
8:00 AM 34.0 °F - 34.0 °F 100% 30.19 in - NW 1.2 mph - N/A   Unknown
12:00 PM 36.5 °F - 33.4 °F 89% 30.24 in - West 1.2 mph - N/A   Unknown
1:00 PM 36 °F - 33 °F 83% 30.23 in - WSW 2.3 mph - -  
1:00 PM 36.1 °F - 31.3 °F 83% 30.23 in - WSW 2.3 mph - N/A   Unknown
2:00 PM 36.0 °F - 30.7 °F 81% 30.23 in - WSW 2.3 mph - N/A   Unknown
3:00 PM 35.2 °F - 31.1 °F 85% 30.24 in - SSW 2.3 mph - N/A   Unknown
4:00 PM 34.2 °F - 31.6 °F 90% 30.25 in - SSW 2.3 mph - N/A   Unknown
5:00 PM 32.9 °F - 31.3 °F 94% 30.26 in - Calm Calm - N/A   Unknown
6:00 PM 33.1 °F - 31.6 °F 94% 30.25 in - ESE 1.2 mph - N/A   Unknown
7:00 PM 34 °F - 31 °F 86% 30.25 in - SSE 2.3 mph - -  
7:00 PM 33.6 °F - 31.3 °F 91% 30.25 in - SSE 2.3 mph - N/A   Unknown
8:00 PM 33.1 °F - 32.0 °F 96% 30.25 in - SSW 2.3 mph - N/A   Unknown
9:00 PM 31.3 °F - 31.3 °F 100% 30.25 in - Calm Calm - N/A   Unknown
10:00 PM 33.6 °F - 33.4 °F 99% 30.21 in - ESE 1.2 mph - N/A   Unknown
11:00 PM 34.5 °F - 32.9 °F 94% 30.22 in - SE 2.3 mph - N/A   Unknown